Location: Newark
(35.6799°N, 139.7636°E)
Time: 12:00:30
(UTC+00:00)

Vanguard 3 - Pass Details

Date: 19 December 2019
Orbit: 507 x 3264 km, 33.4° (Epoch: 28 January)

Event Time Altitude Azimuth Distance (km) Brightness Sun altitude
Exits shadow 18:31:37 14° 115° (ESE) 1,820 9.5 -38.5°
Drops below altitude 10° 18:32:44 10° 104° (ESE) 2,147 10.0 -38.3°
Sets 18:36:20 0° 86° (E) 3,445 11.3 -37.5°
